Погода в Петах-Тикве

Израиль     32°05′10″N   34°53′13″E
темп.,
°C
ветер,
м/с
пор.,
м/с
влажн.,
%
обл.,
%
осадки,
мм/ч
давл.,
гПа
погр.,
м
19 сентября, вс
вс1900:00+23св12690 0.0 101357
03:00+22св12730 0.0 101358
06:00+21в11740 0.0 101421
09:00+25с23600 0.0 1014574
12:00+30сз32360 0.0 10141116
15:00+31сз65360 0.0 10131065
18:00+27ссз65430 0.0 1013668
21:00+25ссв24650 0.0 1014222
20 сентября, пн
пн2000:00+24св11700 0.0 101451
03:00+23в11740 0.0 101442
06:00+22в11770 0.0 101418
09:00+26сз11540 0.0 1014381
12:00+31сз33380 0.0 1014954
15:00+32сз65370 0.0 1012999
18:00+28ссз55490 0.0 1012590
21:00+25ссв22690 0.0 101471
21 сентября, вт
вт2100:00+24ссв11740 0.0 101440
03:00+23св11780 0.0 101328
06:00+22св11820 0.0 101321
09:00+26сз22600 0.0 1014364
12:00+32сз43360 0.0 10131013
15:00+32сз65380 0.0 1011966
18:00+28ссз66480 0.0 1011654
21:00+25ссв22670 0.0 101269
22 сентября, ср
ср2200:00+24вюв11730 0.0 101145
03:00+23ююв22730 0.0 101125
06:00+22ююв33690 0.0 101131
09:00+25ююз34610 0.0 1011586
12:00+31з54330 0.0 10091272
15:00+30зсз66390 0.0 10081082
18:00+27з45520 0.0 1008760
21:00+25ююз23680 0.0 1008227
23 сентября, чт
чт2300:00+23ююв34761 0.0 1008228
03:00+23ююв358061 0.0 1008164
06:00+23ююз458268 0.0 1008417
09:00+25ююз567359 0.0 1008882
12:00+30зюз88440 0.0 10081632
15:00+29з88490 0.0 10071504
18:00+26з67570 0.0 10071038
21:00+25з576881 0.0 1008905